Simultaneous Nadir Overpasses (SNOs) Predictions

Prediction of SNOs between GOES-16 and AQUA Satellite Orbit:

Table of predicted SNOs for the next 14.0 days since TLE Epoch: 10/26/2019
Index Date Time (GOES-16) GOES-16 Lat,Lon AQUA Lat,Lon Distance(km) Time Diff (sec)
1 10/27/2019 06:23:22 -0.00, -75.20 -0.62, -72.42 316.55 80
2 10/27/2019 18:44:46 0.00, -75.20 -0.49, -77.61 273.02 80
3 10/29/2019 18:35:14 -0.00, -75.22 0.14, -74.65 64.64 80
4 10/31/2019 18:23:02 -0.00, -75.23 0.77, -71.69 402.69 80
5 11/01/2019 06:44:17 0.00, -75.23 0.37, -76.84 183.68 80
6 11/03/2019 06:29:26 -0.00, -75.25 -0.32, -73.90 155.04 80
7 11/03/2019 18:50:49 0.00, -75.26 -0.83, -79.08 434.09 80
8 11/05/2019 06:17:14 -0.01, -75.28 -0.95, -70.94 494.31 80
9 11/05/2019 18:38:37 0.01, -75.29 -0.19, -76.12 94.55 80
10 11/07/2019 18:29:05 0.02, -75.33 0.46, -73.16 245.92 80
11 11/08/2019 06:50:21 -0.02, -75.34 0.63, -78.32 339.79 80




NCC Satellite Simultaneous Nadir Overpasses (SNOs) Prediction Service
